NOZ1972 ENVA-EPKK

Flight info

Callsign NOZ1972
Flight time N/A
Altitude 37000
Route EVNEN DCT ABUNO DCT LARMA DCT UWLER
Aircraft B738/M-SDE2E3FGHIRWXY/LB1

Departure

Time 2026-05-04 16:41
Airport Trondheim Airport, Værnes (ENVA)

Arrival

Time N/A
Airport Kraków John Paul II International Airport (EPKK)
Time Latitude Longitude Altitude Speed Heading
2026-05-04 16:00 63.45501 10.91998 42 ft 0 kts 180°
2026-05-04 16:33 63.45518 10.91994 40 ft 4 kts 177°
2026-05-04 16:34 63.45555 10.91940 41 ft 4 kts 94°
2026-05-04 16:34 63.45556 10.91929 41 ft 1 kts 90°
2026-05-04 16:37 63.45556 10.91938 41 ft 1 kts 90°
2026-05-04 16:37 63.45556 10.91969 37 ft 4 kts 90°
2026-05-04 16:37 63.45556 10.92198 44 ft 11 kts 90°
2026-05-04 16:38 63.45580 10.92432 44 ft 5 kts 38°
2026-05-04 16:39 63.45593 10.93292 53 ft 27 kts 90°
2026-05-04 16:39 63.45671 10.94001 62 ft 21 kts 43°
2026-05-04 16:40 63.45764 10.94031 62 ft 5 kts 274°
2026-05-04 16:40 63.45757 10.93357 53 ft 80 kts 270°
2026-05-04 16:41 63.45795 10.88993 1133 ft 157 kts 273°
2026-05-04 16:41 63.45804 10.81618 4105 ft 191 kts 269°
2026-05-04 16:42 63.45807 10.72151 6887 ft 212 kts 268°
2026-05-04 16:43 63.45794 10.65511 8613 ft 216 kts 269°
2026-05-04 16:43 63.45769 10.58703 10219 ft 221 kts 263°
2026-05-04 16:43 63.45230 10.55494 10963 ft 225 kts 237°
2026-05-04 16:44 63.38740 10.54216 13591 ft 297 kts 142°
2026-05-04 16:45 63.37173 10.63306 14197 ft 351 kts 91°
2026-05-04 16:46 63.37420 10.81090 14828 ft 410 kts 90°
2026-05-04 16:46 63.37458 10.93987 16046 ft 420 kts 91°
2026-05-04 16:47 63.37419 11.07181 17282 ft 430 kts 92°
2026-05-04 16:47 63.37120 11.20612 18379 ft 437 kts 108°
2026-05-04 16:48 63.31560 11.35378 19972 ft 414 kts 161°
2026-05-04 16:48 63.28912 11.37891 20508 ft 415 kts 165°
2026-05-04 16:49 63.23528 11.42668 21525 ft 422 kts 166°
2026-05-04 16:49 63.18042 11.47605 22512 ft 429 kts 165°
2026-05-04 16:50 63.12472 11.52703 23379 ft 437 kts 165°
2026-05-04 16:50 63.06825 11.57882 24193 ft 442 kts 166°
2026-05-04 16:51 63.01109 11.63088 24991 ft 446 kts 166°
2026-05-04 16:51 62.98220 11.64958 25328 ft 434 kts 179°
2026-05-04 16:51 62.92219 11.66679 26099 ft 436 kts 181°
2026-05-04 16:52 62.86167 11.68391 26764 ft 440 kts 181°
2026-05-04 16:52 62.83118 11.69289 27091 ft 443 kts 180°
2026-05-04 16:53 62.76978 11.71141 27726 ft 447 kts 180°
2026-05-04 16:53 62.67687 11.73966 28640 ft 453 kts 180°
2026-05-04 16:54 62.64555 11.74917 29026 ft 453 kts 180°
2026-05-04 16:55 62.52132 11.78665 30534 ft 450 kts 180°
2026-05-04 16:55 62.45926 11.80516 31164 ft 450 kts 180°
2026-05-04 16:56 62.39735 11.82360 31842 ft 448 kts 180°
2026-05-04 16:56 62.30511 11.85089 32796 ft 446 kts 180°
2026-05-04 16:57 62.27426 11.85999 33101 ft 446 kts 180°
2026-05-04 16:57 62.21275 11.87805 33674 ft 445 kts 180°
2026-05-04 16:58 62.12085 11.90490 34319 ft 446 kts 180°
2026-05-04 16:58 62.09042 11.91376 34533 ft 446 kts 180°
2026-05-04 16:59 62.02877 11.93166 34940 ft 448 kts 179°
2026-05-04 17:00 61.90760 12.01480 35683 ft 465 kts 165°
2026-05-04 17:00 61.81743 12.09126 36285 ft 464 kts 165°
2026-05-04 17:01 61.75705 12.14126 36575 ft 466 kts 165°
2026-05-04 17:01 61.69638 12.19090 36687 ft 469 kts 165°
2026-05-04 17:02 61.63558 12.24048 36659 ft 466 kts 165°